Location: Gibsondale
(40.9931°N, 80.2478°W)
Time: 16:11:41
(UTC+00:00)

Cosmos 1553 Rocket - Pass Details

Date: 29 October 2020
Orbit: 940 x 1009 km, 82.9° (Epoch: 27 November)

Event Time Altitude Azimuth Distance (km) Brightness Sun altitude
Rises 22:53:22 0° 168° (SSE) 3,713 7.1 -6.9°
Reaches altitude 10° 22:55:59 10° 163° (SSE) 2,761 6.3 -7.4°
Maximum altitude 23:02:01 48° 91° (E) 1,270 4.2 -8.5°
Drops below altitude 10° 23:08:00 10° 19° (NNE) 2,736 6.1 -9.7°
Sets 23:10:34 0° 14° (NNE) 3,677 6.8 -10.1°
